EW4941 Weather Reports


Display with metric or nautical units.
time (UTC)temp
F
wind
direction
speed
MPH
gust
MPH
rain 1hr
in
rain 24hr
in
rain mn
in
humidity
%
barometer
mb
20260507070000 46 0 3.0 9.0 0.00 0.89 0.06 92 1005.6
20260507065954 46 0 3.0 9.0 0.00 0.89 0.06 92 1005.2
20260507064956 46 0 2.0 9.0 0.00 0.89 0.06 92 1005.3
20260507064455 46 0 1.0 5.0 0.00 0.89 0.06 92 1005.1
20260507063954 46 0 0.0 2.0 0.00 0.89 0.06 92 1005.0
20260507063453 46 0 1.0 4.0 0.00 0.89 0.06 92 1004.9
20260507062952 46 0 2.0 5.0 0.00 0.89 0.06 92 1004.9
20260507062725 47 0 3.0 6.0 0.00 0.89 0.06 92 1004.8
20260507061952 47 0 4.0 9.0 0.00 0.89 0.06 92 1004.8
20260507061450 47 0 4.0 9.0 0.00 0.89 0.06 92 1004.8
20260507060950 47 0 3.0 5.0 0.00 0.89 0.06 93 1004.8
20260507060451 47 0 3.0 5.0 0.00 0.89 0.06 93 1004.7
20260507055948 47 0 3.0 8.0 0.00 0.89 0.06 93 1004.8
20260507055449 47 0 3.0 8.0 0.01 0.89 0.06 93 1004.8
20260507054948 47 0 3.0 6.0 0.02 0.89 0.06 93 1004.8
20260507054448 47 0 2.0 5.0 0.02 0.89 0.06 93 1004.6
20260507053946 47 0 2.0 5.0 0.02 0.89 0.06 93 1004.2
20260507053447 47 0 3.0 9.0 0.02 0.89 0.06 93 1004.3
20260507052946 47 0 4.0 9.0 0.03 0.89 0.06 93 1004.3
20260507052716 47 0 4.0 10.0 0.04 0.89 0.06 93 1004.6
20260507051946 47 0 4.0 10.0 0.06 0.89 0.06 93 1004.8
20260507051446 47 0 4.0 11.0 0.06 0.89 0.06 93 1004.7
20260507050944 47 0 5.0 11.0 0.06 0.89 0.06 93 1004.8
20260507050445 48 0 4.0 10.0 0.06 0.89 0.06 93 1004.9
20260507045944 48 0 4.0 9.0 0.06 0.89 0.06 93 1004.8
20260507045444 48 0 4.0 9.0 0.05 0.87 0.04 93 1004.9
20260507045217 48 0 5.0 8.0 0.06 0.87 0.04 93 1005.1
20260507044444 48 0 4.0 8.0 0.06 0.87 0.04 93 1005.1
20260507043944 48 0 4.0 8.0 0.08 0.87 0.04 94 1004.9
20260507043444 49 0 5.0 9.0 0.09 0.87 0.04 94 1005.0
20260507043214 49 0 4.0 9.0 0.09 0.86 0.04 94 1004.8
20260507042445 49 0 4.0 8.0 0.10 0.85 0.02 94 1005.0
20260507041943 49 0 5.0 8.0 0.09 0.83 0.00 94 1005.2
20260507041444 49 0 4.0 9.0 0.10 0.83 0.00 94 1005.2
20260507040945 49 0 4.0 9.0 0.10 0.83 0.00 95 1004.8
20260507040447 50 0 4.0 10.0 0.13 0.83 0.83 94 1004.7
20260507040442 49 0 4.0 10.0 0.12 0.83 0.00 95 1004.8
20260507035713 50 0 5.0 9.0 0.14 0.82 0.82 94 1004.7
20260507034941 50 0 5.0 9.0 0.13 0.81 0.81 95 1004.7
20260507034441 50 0 5.0 10.0 0.14 0.81 0.81 95 1004.6
20260507033943 51 0 5.0 10.0 0.12 0.79 0.80 95 1004.6
20260507033441 51 0 5.0 10.0 0.11 0.78 0.78 95 1004.7
20260507032941 52 0 5.0 10.0 0.10 0.77 0.77 95 1004.5
20260507032442 52 0 4.0 10.0 0.08 0.75 0.75 95 1004.5
20260507031941 52 0 4.0 9.0 0.07 0.74 0.74 95 1004.3
20260507031442 53 0 3.0 6.0 0.06 0.73 0.74 95 1004.1
20260507031213 53 0 2.0 6.0 0.07 0.73 0.73 95 1004.0
20260507030713 53 0 2.0 4.0 0.05 0.71 0.72 95 1004.1
20260507025941 53 0 2.0 4.0 0.04 0.70 0.70 95 1004.2
20260507025441 53 0 2.0 4.0 0.02 0.68 0.68 95 1004.1
20260507024942 53 0 2.0 4.0 0.03 0.68 0.68 95 1003.8
20260507024441 53 0 2.0 4.0 0.03 0.67 0.67 95 1003.7
20260507023942 54 0 3.0 5.0 0.03 0.67 0.67 95 1003.8
20260507023439 54 0 1.0 5.0 0.04 0.67 0.67 95 1003.8
20260507022941 54 0 0.0 4.0 0.04 0.67 0.67 95 1003.9
20260507022712 54 0 0.0 0.0 0.04 0.67 0.67 95 1003.8
20260507021938 54 0 1.0 4.0 0.04 0.67 0.67 95 1003.7
20260507021437 54 0 1.0 4.0 0.04 0.67 0.67 95 1003.7
20260507020938 54 0 1.0 4.0 0.03 0.66 0.66 95 1003.8
20260507020435 54 0 3.0 8.0 0.03 0.66 0.66 95 1003.7
20260507020206 54 0 3.0 8.0 0.03 0.66 0.66 95 1003.8
20260507015434 54 0 3.0 9.0 0.03 0.66 0.66 95 1003.8
20260507014933 54 0 3.0 10.0 0.02 0.65 0.65 95 1003.7
20260507014433 53 0 2.0 10.0 0.01 0.64 0.64 95 1003.8
20260507014204 53 0 2.0 6.0 0.01 0.64 0.64 95 1003.8
20260507013434 53 0 2.0 6.0 0.00 0.63 0.63 95 1003.9
20260507013206 53 0 2.0 6.0 0.00 0.63 0.63 95 1004.1
20260507012433 53 0 2.0 9.0 0.00 0.63 0.63 95 1004.0
20260507011932 53 0 3.0 9.0 0.00 0.64 0.63 95 1003.8
20260507011431 53 0 3.0 8.0 0.00 0.66 0.63 95 1003.7
20260507011202 53 0 3.0 8.0 0.00 0.66 0.63 95 1003.6
20260507010432 53 0 3.0 9.0 0.00 0.66 0.63 95 1003.6
20260507005932 53 0 4.0 11.0 0.00 0.66 0.63 95 1003.6
20260507005431 53 0 4.0 11.0 0.00 0.66 0.63 94 1003.7
20260507004930 53 0 4.0 11.0 0.00 0.66 0.63 94 1003.7
20260507004429 53 0 5.0 11.0 0.00 0.66 0.63 94 1003.8
20260507003929 54 0 5.0 10.0 0.00 0.66 0.63 94 1003.8
20260507003430 54 0 4.0 10.0 0.00 0.66 0.63 95 1003.8
20260507002930 54 0 5.0 11.0 0.00 0.66 0.63 95 1003.8
20260507002429 54 0 5.0 11.0 0.00 0.66 0.63 95 1003.8
20260507001930 54 0 5.0 12.0 0.00 0.66 0.63 95 1003.8
20260507001430 54 0 4.0 13.0 0.00 0.66 0.63 95 1003.8
20260507001200 54 0 4.0 13.0 0.00 0.66 0.63 95 1003.7
20260507000429 54 0 5.0 10.0 0.00 0.66 0.63 94 1003.6
20260506235930 54 0 4.0 11.0 0.00 0.66 0.63 94 1003.7
20260506235429 54 0 4.0 11.0 0.00 0.66 0.63 94 1003.7
20260506234929 54 0 4.0 10.0 0.00 0.66 0.63 94 1003.8
20260506234428 54 0 4.0 11.0 0.01 0.66 0.63 94 1003.8
20260506233929 54 0 4.0 11.0 0.02 0.67 0.63 94 1003.8
20260506233427 54 0 3.0 8.0 0.02 0.67 0.63 94 1003.9
20260506232928 54 0 3.0 8.0 0.04 0.67 0.63 94 1004.0
20260506232429 54 0 3.0 11.0 0.06 0.67 0.63 94 1004.0
20260506231927 54 0 3.0 11.0 0.06 0.67 0.63 94 1003.9
20260506231428 55 0 3.0 9.0 0.06 0.67 0.63 94 1004.0
20260506230927 55 0 3.0 10.0 0.06 0.68 0.63 94 1004.0
20260506230427 55 0 3.0 10.0 0.07 0.68 0.63 94 1004.1
20260506225927 55 0 3.0 8.0 0.07 0.69 0.63 94 1004.1
20260506225429 55 0 2.0 5.0 0.08 0.69 0.63 94 1004.2
20260506225158 55 0 2.0 6.0 0.09 0.69 0.63 94 1004.3
20260506224429 55 0 3.0 8.0 0.12 0.69 0.62 94 1004.3
20260506223925 55 0 3.0 9.0 0.20 0.69 0.61 94 1004.4
20260506223427 55 0 3.0 9.0 0.25 0.69 0.61 94 1004.4
20260506222926 55 0 3.0 9.0 0.24 0.66 0.59 94 1004.5
20260506222657 55 0 3.0 6.0 0.26 0.65 0.57 94 1004.6
20260506221926 55 0 3.0 8.0 0.28 0.65 0.57 94 1004.6
20260506221424 55 0 3.0 8.0 0.31 0.65 0.57 94 1004.6
20260506220924 55 0 2.0 6.0 0.32 0.65 0.57 94 1004.7
20260506220422 55 0 2.0 6.0 0.35 0.64 0.56 94 1004.8
20260506215922 55 0 3.0 6.0 0.36 0.64 0.56 94 1004.9
20260506215422 55 0 3.0 6.0 0.36 0.63 0.55 94 1004.9
20260506214918 55 0 4.0 8.0 0.35 0.62 0.55 94 1005.0
20260506214417 55 0 4.0 11.0 0.31 0.57 0.50 94 1005.0
20260506213917 55 0 3.0 11.0 0.24 0.49 0.41 94 1005.2
20260506213416 55 0 3.0 8.0 0.19 0.44 0.36 94 1005.2
20260506212915 55 0 3.0 6.0 0.18 0.42 0.35 94 1005.2
20260506212644 55 0 3.0 6.0 0.16 0.39 0.31 94 1005.1
20260506212417 55 0 3.0 6.0 0.16 0.39 0.31 94 1005.1
20260506211913 55 0 3.0 8.0 0.13 0.36 0.29 94 1005.2
20260506211413 55 0 3.0 12.0 0.11 0.34 0.27 94 1005.2
20260506210912 55 0 3.0 12.0 0.11 0.33 0.25 94 1005.1
20260506210412 55 0 3.0 9.0 0.07 0.29 0.22 94 1005.2
20260506205910 56 0 2.0 5.0 0.07 0.28 0.20 94 1005.1
20260506205640 56 0 2.0 6.0 0.06 0.27 0.19 94 1005.0
20260506204907 55 0 2.0 6.0 0.06 0.27 0.19 94 1005.0
20260506204409 55 0 2.0 6.0 0.05 0.26 0.18 94 1005.0
20260506203905 55 0 3.0 11.0 0.04 0.25 0.17 94 1005.0
20260506203403 55 0 4.0 11.0 0.04 0.24 0.17 93 1005.0
20260506202902 55 0 3.0 11.0 0.04 0.24 0.16 93 1005.1
20260506202408 55 0 2.0 9.0 0.04 0.23 0.15 93 1005.3
20260506202402 55 0 3.0 10.0 0.04 0.23 0.15 93 1005.3
20260506201403 55 0 2.0 8.0 0.04 0.23 0.15 93 1005.3
20260506200902 55 0 3.0 9.0 0.03 0.22 0.14 93 1005.4
20260506200405 55 0 3.0 9.0 0.04 0.22 0.14 93 1005.5
20260506195902 55 0 2.0 8.0 0.04 0.21 0.13 93 1005.4
20260506195404 55 0 3.0 9.0 0.05 0.21 0.13 93 1005.5
20260506194902 55 0 3.0 9.0 0.08 0.21 0.13 93 1005.4
20260506194634 55 0 3.0 8.0 0.10 0.21 0.13 93 1005.6
20260506193904 55 0 3.0 6.0 0.10 0.21 0.13 93 1005.6
20260506193403 55 0 3.0 8.0 0.10 0.20 0.12 93 1005.7
20260506193134 55 0 3.0 8.0 0.11 0.20 0.12 92 1005.6
20260506192410 55 0 3.0 9.0 0.10 0.19 0.11 92 1005.5
20260506192405 55 0 3.0 9.0 0.10 0.19 0.11 92 1005.6
20260506191408 56 0 3.0 6.0 0.11 0.19 0.11 92 1005.7
20260506191402 55 0 3.0 6.0 0.11 0.19 0.11 92 1005.6
20260506190401 56 0 3.0 6.0 0.10 0.18 0.10 91 1005.8
20260506190134 56 0 3.0 6.0 0.09 0.17 0.09 91 1005.9
20260506185402 56 0 3.0 9.0 0.08 0.16 0.08 91 1006.1
20260506184900 56 0 2.0 9.0 0.05 0.13 0.05 90 1006.1
20260506184400 57 0 1.0 4.0 0.03 0.11 0.03 90 1006.1
20260506184126 57 0 1.0 4.0 0.03 0.11 0.03 89 1005.9
20260506183355 57 0 2.0 5.0 0.02 0.10 0.02 89 1005.8
20260506182854 57 0 3.0 10.0 0.01 0.09 0.01 88 1005.8
20260506182356 58 0 3.0 10.0 0.01 0.09 0.01 87 1005.8
20260506181855 58 0 2.0 6.0 0.01 0.09 0.01 86 1005.8
20260506181356 58 0 2.0 5.0 0.00 0.08 0.00 85 1005.9
20260506180854 59 0 2.0 6.0 0.00 0.08 0.00 84 1005.9
20260506180354 59 0 2.0 6.0 0.00 0.08 0.00 84 1006.0
20260506175854 60 0 2.0 6.0 0.00 0.08 0.00 83 1006.0
20260506175356 60 0 3.0 6.0 0.00 0.08 0.00 83 1006.0
20260506175126 60 0 2.0 6.0 0.00 0.08 0.00 83 1006.0
20260506174351 60 0 2.0 4.0 0.00 0.08 0.00 83 1006.1
20260506173851 60 0 2.0 6.0 0.00 0.08 0.00 83 1006.1
20260506173351 60 0 3.0 9.0 0.00 0.08 0.00 82 1006.2
20260506172850 60 0 4.0 9.0 0.00 0.08 0.00 81 1006.3
20260506172351 60 0 4.0 9.0 0.00 0.08 0.00 81 1006.4
20260506171850 60 0 3.0 9.0 0.00 0.08 0.00 80 1006.5
20260506171352 60 0 3.0 9.0 0.00 0.08 0.00 80 1006.5
20260506170850 60 0 2.0 9.0 0.00 0.08 0.00 80 1006.6
20260506170619 61 0 2.0 5.0 0.00 0.08 0.00 81 1006.9
20260506165849 60 0 3.0 8.0 0.00 0.08 0.00 80 1007.0
20260506165348 61 0 2.0 8.0 0.00 0.08 0.00 80 1007.2
20260506164846 61 0 2.0 6.0 0.00 0.08 0.00 80 1007.2
20260506164347 61 0 3.0 6.0 0.00 0.08 0.00 80 1007.2
20260506163846 61 0 3.0 10.0 0.00 0.08 0.00 80 1007.4
20260506163346 61 0 3.0 10.0 0.00 0.08 0.00 80 1007.4
20260506162846 60 0 2.0 5.0 0.00 0.08 0.00 80 1007.5
20260506162346 60 0 2.0 5.0 0.00 0.08 0.00 82 1007.8
20260506161845 60 0 2.0 5.0 0.00 0.08 0.00 81 1007.8
20260506161345 60 0 2.0 8.0 0.00 0.08 0.00 81 1007.8
20260506161116 60 0 2.0 8.0 0.00 0.08 0.00 80 1007.8
20260506160344 60 0 2.0 5.0 0.00 0.08 0.00 82 1008.0
20260506155846 60 0 2.0 6.0 0.00 0.08 0.00 81 1008.1
20260506155345 60 0 2.0 6.0 0.00 0.08 0.00 80 1008.2
20260506154849 60 0 2.0 5.0 0.00 0.08 0.00 80 1008.2
20260506154844 60 0 2.0 5.0 0.00 0.08 0.00 80 1008.3
20260506153844 60 0 1.0 5.0 0.00 0.08 0.00 80 1008.2
20260506153344 60 0 1.0 5.0 0.00 0.08 0.00 80 1008.2
20260506152844 60 0 2.0 8.0 0.00 0.08 0.00 80 1008.2
20260506152342 60 0 1.0 8.0 0.00 0.08 0.00 80 1008.1
20260506151843 60 0 0.0 1.0 0.00 0.08 0.00 80 1008.1
20260506151345 60 0 1.0 4.0 0.00 0.08 0.00 80 1008.2
20260506150844 60 0 1.0 5.0 0.00 0.08 0.00 81 1008.1
20260506150342 60 0 2.0 6.0 0.00 0.08 0.00 80 1008.0
20260506145844 60 0 1.0 6.0 0.00 0.08 0.00 80 1007.9
20260506145343 60 0 0.0 4.0 0.00 0.08 0.00 81 1008.0
20260506144840 60 0 1.0 4.0 0.00 0.08 0.00 81 1008.0
20260506144343 60 0 0.0 3.0 0.00 0.08 0.00 81 1007.9
20260506143840 59 0 0.0 0.0 0.00 0.08 0.00 81 1007.8
20260506143338 59 0 0.0 0.0 0.00 0.08 0.00 81 1007.9
20260506142837 59 0 0.0 0.0 0.00 0.08 0.00 82 1007.9
20260506142339 58 0 0.0 0.0 0.00 0.08 0.00 84 1008.0
20260506142110 58 0 0.0 0.0 0.00 0.08 0.00 83 1008.2
20260506141337 57 0 0.0 0.0 0.00 0.08 0.00 84 1008.3
20260506140835 57 0 0.0 0.0 0.00 0.08 0.00 83 1008.4
20260506140332 57 0 0.0 0.0 0.00 0.08 0.00 84 1008.4
20260506135829 56 0 0.0 0.0 0.00 0.08 0.00 83 1008.6
20260506135331 56 0 0.0 0.0 0.00 0.08 0.00 84 1008.6
20260506134828 56 0 0.0 0.0 0.00 0.08 0.00 84 1008.6
20260506134600 56 0 0.0 0.0 0.00 0.08 0.00 84 1008.6
20260506133828 56 0 0.0 1.0 0.00 0.08 0.00 84 1008.6
20260506133328 56 0 1.0 3.0 0.00 0.08 0.00 84 1008.6
20260506132830 56 0 1.0 3.0 0.00 0.08 0.00 85 1008.5
20260506132329 56 0 0.0 3.0 0.00 0.08 0.00 84 1008.5
20260506131827 56 0 0.0 2.0 0.00 0.08 0.00 84 1008.5
20260506131329 56 0 1.0 2.0 0.00 0.08 0.00 84 1008.6
20260506130825 56 0 1.0 3.0 0.00 0.08 0.00 84 1008.4
20260506130327 56 0 0.0 3.0 0.00 0.08 0.00 84 1008.5
20260506125824 56 0 1.0 3.0 0.00 0.08 0.00 84 1008.5
20260506125326 56 0 2.0 3.0 0.00 0.08 0.00 85 1008.5
20260506125055 55 0 2.0 3.0 0.00 0.08 0.00 85 1008.5
20260506124325 55 0 1.0 3.0 0.00 0.08 0.00 85 1008.5
20260506123825 56 0 1.0 3.0 0.00 0.08 0.00 85 1008.8
20260506123554 55 0 1.0 3.0 0.00 0.08 0.00 86 1008.8
20260506122824 55 0 1.0 3.0 0.00 0.08 0.00 86 1008.8
20260506122326 55 0 1.0 3.0 0.00 0.08 0.00 87 1008.8
20260506121823 55 0 0.0 2.0 0.00 0.08 0.00 88 1009.0
20260506121324 54 0 0.0 2.0 0.00 0.08 0.00 89 1009.0
20260506120825 54 0 0.0 1.0 0.00 0.08 0.00 89 1009.2
20260506120555 53 0 1.0 3.0 0.00 0.08 0.00 89 1009.2
20260506115824 53 0 1.0 3.0 0.00 0.08 0.00 89 1009.2
20260506115326 53 0 1.0 4.0 0.00 0.08 0.00 89 1009.2
20260506114825 53 0 2.0 4.0 0.00 0.08 0.00 89 1009.1
20260506114321 53 0 2.0 6.0 0.00 0.08 0.00 90 1009.2
20260506113818 53 0 2.0 6.0 0.00 0.08 0.00 90 1009.1
20260506113547 53 0 1.0 4.0 0.00 0.08 0.00 90 1009.6
20260506112816 53 0 1.0 4.0 0.00 0.08 0.00 90 1009.5
20260506112544 52 0 0.0 4.0 0.00 0.08 0.00 91 1009.5
20260506111811 52 0 0.0 0.0 0.00 0.08 0.00 92 1009.5
20260506111313 52 0 0.0 0.0 0.00 0.08 0.00 92 1009.5
20260506110814 52 0 0.0 0.0 0.00 0.08 0.00 92 1009.3
20260506110308 52 0 0.0 0.0 0.00 0.08 0.00 92 1009.2
20260506105806 51 0 0.0 0.0 0.00 0.08 0.00 92 1009.3
20260506105306 51 0 0.0 0.0 0.00 0.08 0.00 92 1009.5
20260506105035 51 0 0.0 0.0 0.00 0.08 0.00 92 1009.1
20260506104535 51 0 0.0 0.0 0.00 0.08 0.00 93 1009.2
20260506103806 51 0 0.0 0.0 0.00 0.08 0.00 93 1009.1
20260506103304 51 0 0.0 3.0 0.00 0.08 0.00 92 1009.1
20260506102801 51 0 0.0 3.0 0.00 0.08 0.00 93 1009.1
20260506102305 51 0 1.0 4.0 0.00 0.08 0.00 93 1009.0
20260506101802 51 0 0.0 4.0 0.00 0.08 0.00 93 1009.0
20260506101302 51 0 0.0 0.0 0.00 0.08 0.00 92 1009.1
20260506100801 51 0 0.0 0.0 0.00 0.08 0.00 92 1009.2
20260506100532 51 0 0.0 0.0 0.00 0.08 0.00 92 1009.3
20260506095800 51 0 0.0 0.0 0.00 0.08 0.00 92 1009.3
20260506095305 51 0 0.0 0.0 0.00 0.08 0.00 92 1009.3
20260506095029 51 0 0.0 0.0 0.00 0.08 0.00 92 1009.2
20260506094301 51 0 0.0 0.0 0.00 0.08 0.00 92 1009.1
20260506093759 51 0 0.0 0.0 0.00 0.08 0.00 93 1009.1
20260506093301 51 0 0.0 0.0 0.00 0.08 0.00 93 1009.0
20260506092759 51 0 0.0 0.0 0.00 0.08 0.00 93 1008.9
20260506092300 51 0 0.0 0.0 0.00 0.08 0.00 93 1008.8
20260506091759 51 0 0.0 0.0 0.00 0.08 0.00 93 1008.8
20260506091257 51 0 0.0 1.0 0.00 0.08 0.00 93 1008.8
20260506090757 51 0 0.0 1.0 0.00 0.08 0.00 93 1008.7
20260506090258 51 0 0.0 1.0 0.00 0.08 0.00 93 1008.7
20260506085758 51 0 1.0 2.0 0.00 0.08 0.00 93 1008.6
20260506085257 51 0 1.0 2.0 0.00 0.08 0.00 92 1008.5
20260506084757 51 0 1.0 2.0 0.00 0.08 0.00 92 1008.5
20260506084257 51 0 0.0 3.0 0.00 0.08 0.00 92 1008.7
20260506083758 51 0 0.0 3.0 0.00 0.08 0.00 92 1008.7
20260506083259 51 0 0.0 0.0 0.00 0.08 0.00 92 1008.9
20260506083026 51 0 0.0 0.0 0.00 0.08 0.00 92 1008.8
20260506082255 51 0 0.0 0.0 0.00 0.08 0.00 92 1008.9
20260506081755 51 0 0.0 1.0 0.00 0.08 0.00 92 1008.9
20260506081527 51 0 0.0 2.0 0.00 0.08 0.00 92 1008.9
20260506080756 51 0 1.0 3.0 0.00 0.08 0.00 91 1009.0
20260506080254 51 0 1.0 5.0 0.00 0.08 0.00 91 1009.0
20260506072750 51 0 1.0 4.0 0.00 0.08 0.00 91 1008.6
20260506072250 51 0 0.0 4.0 0.00 0.08 0.00 91 1008.5
20260506071750 51 0 0.0 0.0 0.00 0.08 0.00 91 1008.2
20260506071252 51 0 0.0 0.0 0.00 0.08 0.00 91 1007.9
20260506070751 51 0 0.0 0.0 0.00 0.08 0.00 91 1007.9
20260506070248 51 0 0.0 0.0 0.00 0.08 0.00 91 1007.9